GW1765 Weather Reports


Display with metric or nautical units.
time (UTC)temp
F
wind
direction
speed
MPH
gust
MPH
rain 1hr
in
rain 24hr
in
rain mn
in
humidity
%
barometer
mb
20260509185042 54 225 2.0 4.0 0.00 0.05 0.02 98 1003.4
20260509184040 53 207 3.0 5.0 0.00 0.05 0.02 98 1003.5
20260509183035 53 215 3.0 6.0 0.00 0.05 0.02 98 1003.5
20260509182032 54 203 6.0 10.0 0.00 0.05 0.02 98 1003.5
20260509181028 54 201 6.0 8.0 0.00 0.05 0.02 98 1003.5
20260509180026 54 214 7.0 9.0 0.00 0.06 0.02 98 1003.4
20260509175022 54 262 8.0 11.0 0.00 0.06 0.02 98 1003.3
20260509174017 54 222 6.0 10.0 0.00 0.06 0.02 98 1003.3
20260509173135 53 220 3.0 9.0 0.00 0.06 0.02 97 1003.2
20260509172111 53 225 3.0 6.0 0.00 0.06 0.02 98 1003.2
20260509171109 53 228 6.0 11.0 0.00 0.06 0.02 97 1003.2
20260509170106 53 242 3.0 8.0 0.00 0.06 0.02 97 1003.1
20260509165101 53 251 3.0 5.0 0.00 0.06 0.02 97 1003.1
20260509164057 53 222 3.0 4.0 0.00 0.06 0.02 97 1003.1
20260509163114 53 194 2.0 4.0 0.00 0.06 0.02 97 1003.0
20260509162115 53 188 3.0 7.0 0.00 0.06 0.02 97 1003.2
20260509161046 53 232 4.0 7.0 0.00 0.06 0.02 97 1003.2
20260509160042 53 248 1.0 5.0 0.00 0.06 0.02 97 1003.2
20260509155041 53 226 3.0 6.0 0.02 0.06 0.02 97 1003.2
20260509154036 53 214 5.0 11.0 0.02 0.06 0.02 97 1003.2
20260509153032 53 236 10.0 16.0 0.02 0.06 0.02 97 1003.5
20260509152028 53 199 4.0 12.0 0.02 0.06 0.02 97 1003.5
20260509151025 54 231 5.0 8.0 0.02 0.06 0.02 97 1003.5
20260509150021 53 234 5.0 15.0 0.02 0.06 0.02 97 1003.5
20260509145018 53 232 0.0 2.0 0.00 0.04 0.00 97 1003.6
20260509144114 54 221 2.0 4.0 0.00 0.04 0.00 97 1003.6
20260509143153 54 233 3.0 5.0 0.00 0.04 0.00 97 1003.8
20260509142108 54 236 3.0 7.0 0.00 0.04 0.00 96 1003.8
20260509141104 54 237 2.0 4.0 0.00 0.04 0.00 96 1003.8
20260509140122 54 279 1.0 3.0 0.00 0.04 0.00 96 1003.9
20260509135120 53 291 2.0 4.0 0.00 0.04 0.00 95 1003.8
20260509134054 53 305 2.0 4.0 0.00 0.04 0.00 94 1003.7
20260509133050 54 270 3.0 4.0 0.00 0.04 0.00 94 1003.7
20260509132046 53 280 3.0 5.0 0.00 0.04 0.00 93 1003.8
20260509131042 52 261 2.0 4.0 0.00 0.04 0.00 92 1003.9
20260509130040 52 142 1.0 3.0 0.00 0.04 0.00 92 1003.8
20260509125036 53 213 3.0 5.0 0.00 0.04 0.00 92 1003.7
20260509124032 53 229 4.0 8.0 0.00 0.04 0.00 91 1003.8
20260509123029 53 231 3.0 7.0 0.00 0.04 0.00 91 1003.8
20260509122025 52 209 3.0 6.0 0.00 0.04 0.00 90 1003.8
20260509121022 52 261 2.0 11.0 0.00 0.04 0.00 90 1003.9
20260509120018 52 176 2.0 4.0 0.00 0.04 0.00 89 1004.0
20260509115119 52 217 2.0 4.0 0.00 0.04 0.04 88 1004.0
20260509114111 52 180 3.0 7.0 0.00 0.05 0.04 87 1004.0
20260509113108 51 190 2.0 7.0 0.00 0.05 0.04 86 1004.0
20260509112147 52 135 2.0 3.0 0.00 0.05 0.04 86 1004.0
20260509111101 52 121 1.0 3.0 0.00 0.05 0.04 85 1004.1
20260509110058 52 143 1.0 2.0 0.00 0.05 0.04 85 1004.2
20260509105115 52 79 1.0 2.0 0.00 0.05 0.04 85 1004.0
20260509104050 53 165 1.0 2.0 0.00 0.05 0.04 85 1004.0
20260509103049 53 180 0.0 2.0 0.00 0.05 0.04 85 1004.0
20260509102045 53 0.0 1.0 0.00 0.05 0.04 85 1004.0
20260509101040 53 0.0 1.0 0.00 0.05 0.04 84 1004.1
20260509100037 53 252 0.0 2.0 0.00 0.05 0.04 84 1004.0
20260509095034 53 245 1.0 3.0 0.00 0.05 0.04 85 1003.8
20260509094031 53 229 1.0 2.0 0.00 0.05 0.04 85 1003.8
20260509093029 53 264 1.0 4.0 0.00 0.05 0.04 84 1003.7
20260509092023 53 252 0.0 2.0 0.00 0.06 0.04 85 1003.6
20260509091021 53 90 1.0 2.0 0.00 0.09 0.04 85 1003.6
20260509090036 53 65 1.0 3.0 0.00 0.18 0.04 86 1003.7
20260509085112 53 96 1.0 3.0 0.00 0.25 0.04 86 1003.7
20260509084129 52 82 1.0 3.0 0.00 0.33 0.04 85 1003.7
20260509083106 52 90 2.0 4.0 0.00 0.41 0.04 85 1003.7
20260509082124 52 125 1.0 3.0 0.00 0.43 0.04 85 1003.6
20260509081100 53 170 1.0 2.0 0.00 0.43 0.04 86 1003.6
20260509080055 54 196 3.0 5.0 0.00 0.43 0.04 86 1003.7
20260509075052 55 222 2.0 5.0 0.00 0.43 0.04 85 1003.6
20260509074048 55 254 0.0 2.0 0.00 0.46 0.04 84 1003.9
20260509073108 55 225 1.0 4.0 0.00 0.51 0.04 84 1003.7
20260509072041 55 225 3.0 6.0 0.00 0.54 0.04 83 1003.5
20260509071037 55 221 1.0 5.0 0.00 0.54 0.04 83 1003.5
20260509070035 55 207 0.0 2.0 0.00 0.54 0.04 83 1003.5
20260509065031 55 215 1.0 2.0 0.00 0.54 0.04 82 1003.3
20260509064110 55 233 3.0 4.0 0.00 0.57 0.04 82 1003.2
20260509063024 55 231 2.0 4.0 0.00 0.59 0.04 82 1003.1
20260509062022 56 225 1.0 7.0 0.00 0.59 0.04 82 1003.1
20260509061016 56 225 1.0 3.0 0.00 0.59 0.04 82 1002.9
20260509060114 56 235 3.0 7.0 0.00 0.59 0.04 82 1002.9
20260509055109 56 229 4.0 8.0 0.00 0.59 0.04 83 1002.8
20260509054106 57 234 4.0 8.0 0.00 0.59 0.04 83 1002.8
20260509053104 57 244 4.0 9.0 0.00 0.59 0.04 82 1002.7
20260509052059 58 242 2.0 5.0 0.00 0.61 0.04 82 1002.7
20260509051056 58 205 2.0 7.0 0.00 0.61 0.04 81 1002.7
20260509050052 58 255 2.0 4.0 0.00 0.61 0.04 80 1002.8
20260509045048 59 243 2.0 4.0 0.00 0.63 0.04 79 1002.8
20260509044046 60 289 3.0 8.0 0.00 0.63 0.04 78 1002.9
20260509043044 61 271 5.0 9.0 0.00 0.64 0.04 79 1002.9
20260509042038 62 255 2.0 5.0 0.00 0.65 0.04 81 1002.9
20260509041034 61 278 2.0 5.0 0.00 0.65 0.04 80 1002.8
20260509040052 61 259 3.0 5.0 0.00 0.65 0.04 81 1002.9
20260509035028 61 267 5.0 9.0 0.00 0.66 0.04 81 1002.9
20260509034024 63 238 5.0 11.0 0.00 0.66 0.04 84 1002.9
20260509033021 61 247 4.0 8.0 0.00 0.66 0.04 84 1002.8
20260509032017 60 248 3.0 7.0 0.00 0.66 0.04 83 1002.9
20260509031135 60 301 6.0 12.0 0.00 0.66 0.04 83 1003.1
20260509030111 60 297 7.0 12.0 0.00 0.66 0.04 83 1003.2
20260509025107 60 308 7.0 14.0 0.00 0.66 0.04 84 1003.1
20260509024103 61 247 4.0 7.0 0.00 0.66 0.04 85 1003.2
20260509023059 61 245 5.0 11.0 0.00 0.66 0.04 85 1003.1
20260509022055 60 261 5.0 9.0 0.00 0.66 0.04 85 1003.1
20260509021052 61 281 5.0 10.0 0.00 0.66 0.04 85 1003.2
20260509020049 61 270 2.0 4.0 0.00 0.66 0.04 89 1003.1
20260509015047 61 270 3.0 10.0 0.00 0.66 0.04 89 1003.2
20260509014041 60 276 7.0 12.0 0.00 0.66 0.04 89 1003.1
20260509013039 61 278 5.0 9.0 0.00 0.66 0.04 91 1003.0
20260509012035 60 261 5.0 11.0 0.00 0.66 0.04 92 1003.0
20260509011031 60 264 5.0 11.0 0.00 0.66 0.04 93 1003.1
20260509010027 60 242 4.0 9.0 0.00 0.66 0.04 94 1003.4
20260509005025 59 280 6.0 15.0 0.00 0.66 0.04 95 1003.5
20260509004020 59 294 9.0 15.0 0.00 0.66 0.04 96 1003.6
20260509003016 59 274 10.0 16.0 0.00 0.66 0.04 96 1003.6
20260509002115 59 297 10.0 19.0 0.00 0.66 0.04 96 1003.8
20260509001110 59 306 12.0 18.0 0.00 0.66 0.04 97 1003.8
20260509000131 59 313 14.0 21.0 0.00 0.66 0.04 98 1004.0
20260508235104 59 312 13.0 18.0 0.00 0.66 0.04 99 1004.2
20260508234120 59 313 13.0 20.0 0.00 0.66 0.04 99 1004.3
20260508233056 59 313 13.0 19.0 0.00 0.66 0.04 99 1004.3
20260508232115 58 311 11.0 18.0 0.01 0.66 0.04 99 1004.2
20260508231049 58 306 12.0 17.0 0.01 0.66 0.04 98 1004.3
20260508230046 58 315 12.0 17.0 0.01 0.66 0.04 97 1004.2
20260508225042 58 315 13.0 18.0 0.02 0.66 0.04 95 1004.3
20260508224041 58 321 16.0 24.0 0.02 0.66 0.04 94 1004.1
20260508223037 59 317 18.0 34.0 0.02 0.66 0.04 95 1003.9
20260508222031 58 318 17.0 24.0 0.01 0.65 0.02 95 1003.9
20260508221030 58 315 13.0 21.0 0.01 0.65 0.02 93 1003.9
20260508220026 58 299 16.0 23.0 0.01 0.65 0.02 91 1003.8
20260508215021 58 312 16.0 23.0 0.00 0.64 0.01 90 1003.7
20260508214018 59 315 17.0 22.0 0.00 0.64 0.01 91 1003.7
20260508213114 58 322 16.0 22.0 0.00 0.64 0.01 90 1003.7
20260508212111 58 315 19.0 27.0 0.00 0.64 0.01 87 1003.7
20260508211109 59 323 16.0 23.0 0.00 0.64 0.01 84 1003.7
20260508210104 59 337 19.0 25.0 0.00 0.64 0.01 85 1003.6
20260508205100 59 340 15.0 24.0 0.00 0.64 0.01 88 1003.5
20260508204058 58 343 15.0 20.0 0.00 0.64 0.01 92 1003.6
20260508203053 58 341 17.0 21.0 0.00 0.64 0.01 95 1003.7
20260508202050 58 321 14.0 20.0 0.00 0.64 0.01 97 1003.6
20260508201049 58 337 13.0 20.0 0.00 0.64 0.01 99 1003.5
20260508200045 58 323 13.0 18.0 0.00 0.64 0.01 99 1003.4
20260508195039 58 309 16.0 21.0 0.00 0.64 0.01 99 1003.4
20260508194036 58 345 14.0 19.0 0.00 0.64 0.01 99 1003.2
20260508193033 58 357 12.0 17.0 0.00 0.64 0.01 99 1003.3
20260508192052 57 354 9.0 14.0 0.00 0.64 0.01 99 1003.4
20260508191027 56 347 7.0 11.0 0.00 0.64 0.01 99 1003.5
20260508190022 56 0 7.0 12.0 0.01 0.64 0.01 99 1003.4